Barrow, AK

5:46 AM AKDT on September 22, 2017 (GMT -0800)
Wiley Post-Will Rogers Memorial

Weather History for PABR - October, 2012

Change the Weather History Date:

Tuesday, October 23, 2012

  Actual Average Record
Temperature  
Mean Temperature 30 °F 13 °F  
Max Temperature 32 °F 18 °F 37 °F (1957)
Min Temperature 28 °F 8 °F -21 °F (1983)
Degree Days  
Heating Degree Days 35 52  
Month to date heating degree days 849 1043  
Since 1 July heating degree days 3001 3584  
Cooling Degree Days 0 0  
Month to date cooling degree days 0 0  
Year to date cooling degree days 0 0  
Moisture  
Dew Point 27 °F    
Average Humidity 0    
Maximum Humidity 0    
Minimum Humidity 0    
Precipitation  
Precipitation T in 0.02 in 0.14 in (1920)
Month to date precipitation 0.84 0.33  
Year to date precipitation 5.58 4.10  
Snow  
Snow 0.10 in 0.30 in 2.00 in (1929)
Month to date snowfall 9.0 6.8  
Since 1 July snowfall 15.0 12.3  
Since 1 September snowfall 14.8 11.2  
Snow Depth 4.00 in    
Sea Level Pressure  
Sea Level Pressure 30.53 in    
Wind  
Wind Speed 14 mph (West)    
Max Wind Speed 22 mph    
Max Gust Speed 25 mph    
Visibility 8 miles    
Events Snow    
T = Trace of Precipitation, MM = Missing Value Source: NWS Daily Summary

Daily Weather History Graph

Daily Weather History Graph

Search for Another Location

Airport or City:

Trip Planner

Search our weather history database for the weather conditions in past years. The results will help you decide how hot, cold, wet, or windy it might be!

Date:

Astronomy

Oct. 23, 2012 Rise Set
Actual Time 10:29 AM AKDT 5:51 PM AKDT
Civil Twilight 9:16 AM AKDT 7:04 PM AKDT
Nautical Twilight 7:59 AM AKDT 8:20 PM AKDT
Astronomical Twilight 6:43 AM AKDT 9:36 PM AKDT
Moon 5:41 PM AKDT (10/23) 12:59 AM AKDT (10/23)
Length of Visible Light 9h 48m
Length of Day
7h 21m
Waxing Gibbous, 68% of the Moon is Illuminated
Oct 23
Waxing Gibbous
Oct 29
Full
Nov 6
Last Quarter
Nov 13
New
Nov 20
First Quarter

Hourly Weather History & Observations

Time (AKDT) Temp. Windchill Dew Point Humidity Pressure Visibility Wind Dir Wind Speed Gust Speed Precip Events Conditions
12:53 AM 32.0 °F 21.2 °F 28.0 °F 85% 30.40 in 10.0 mi SW 16.1 mph 24.2 mph 0.00 in   Overcast
1:03 AM 32.0 °F 21.2 °F 28.4 °F 87% 30.40 in 10.0 mi SW 16.1 mph - N/A   Overcast
1:53 AM 32.0 °F 20.5 °F 28.0 °F 85% 30.42 in 10.0 mi SW 18.4 mph - N/A   Overcast
2:05 AM 32.0 °F 20.5 °F 28.4 °F 87% 30.42 in 10.0 mi SW 18.4 mph - N/A   Overcast
2:53 AM 32.0 °F 20.5 °F 28.9 °F 88% 30.43 in 9.0 mi SW 18.4 mph - 0.00 in Snow Light Snow
3:16 AM 32.0 °F 20.5 °F 28.4 °F 87% 30.43 in 9.0 mi SW 18.4 mph - 0.00 in Snow Light Snow
3:27 AM 32.0 °F 20.5 °F 28.4 °F 87% 30.43 in 9.0 mi SW 18.4 mph - 0.00 in Snow Light Snow
3:32 AM 32.0 °F 20.5 °F 28.4 °F 87% 30.43 in 9.0 mi SW 18.4 mph - 0.00 in Snow Light Snow
3:53 AM 32.0 °F 20.5 °F 28.4 °F 87% 30.43 in 9.0 mi SW 18.4 mph - N/A Snow Light Snow
4:12 AM 32.0 °F 20.1 °F 28.4 °F 87% 30.44 in 9.0 mi SW 19.6 mph - 0.00 in Snow Light Snow
4:24 AM 32.0 °F 20.1 °F 28.4 °F 87% 30.44 in 9.0 mi SW 19.6 mph - 0.00 in Snow Light Snow
4:41 AM 32.0 °F 20.5 °F 28.4 °F 87% 30.45 in 8.0 mi WSW 18.4 mph - 0.00 in Snow Light Snow
4:53 AM 32.0 °F 19.8 °F 28.9 °F 88% 30.45 in 5.0 mi SW 20.7 mph - 0.00 in Snow Light Snow
5:09 AM 32.0 °F 21.2 °F 30.2 °F 93% 30.45 in 3.0 mi WSW 16.1 mph - 0.00 in Snow Light Snow
5:11 AM 32.0 °F 21.6 °F 30.2 °F 93% 30.45 in 1.8 mi WSW 15.0 mph - 0.00 in Snow Light Snow
5:23 AM 32.0 °F 21.6 °F 30.2 °F 93% 30.45 in 3.0 mi WSW 15.0 mph - 0.00 in Snow Light Snow
5:31 AM 32.0 °F 22.1 °F 30.2 °F 93% 30.45 in 8.0 mi WSW 13.8 mph - 0.00 in Snow Light Snow
5:53 AM 32.0 °F 21.6 °F 28.9 °F 88% 30.47 in 9.0 mi West 15.0 mph - 0.00 in Snow Light Snow
6:53 AM 30.2 °F 18.5 °F 26.6 °F 86% 30.48 in 10.0 mi West 17.3 mph - N/A   Overcast
7:53 AM 30.9 °F 19.4 °F 25.0 °F 79% 30.50 in 10.0 mi West 17.3 mph 21.9 mph N/A   Overcast
8:53 AM 30.0 °F 18.3 °F 26.1 °F 85% 30.51 in 9.0 mi West 17.3 mph - N/A   Overcast
9:53 AM 30.0 °F 17.9 °F 25.0 °F 82% 30.53 in 9.0 mi West 18.4 mph - 0.00 in Snow Light Snow
10:53 AM 30.0 °F 17.9 °F 24.1 °F 79% 30.54 in 10.0 mi West 18.4 mph 23.0 mph 0.00 in   Overcast
11:53 AM 30.0 °F 19.1 °F 25.0 °F 82% 30.56 in 10.0 mi West 15.0 mph - N/A   Overcast
12:22 PM 30.2 °F 20.2 °F 26.6 °F 86% 30.56 in 6.0 mi West 12.7 mph - 0.00 in   Light Freezing Drizzle
12:46 PM 30.2 °F 19.8 °F 24.8 °F 80% 30.57 in 9.0 mi West 13.8 mph - 0.00 in   Overcast
12:53 PM 30.0 °F 20.0 °F 26.1 °F 85% 30.57 in 6.0 mi West 12.7 mph - 0.00 in   Overcast
1:53 PM 30.0 °F 20.0 °F 26.1 °F 85% 30.59 in 8.0 mi West 12.7 mph - N/A   Overcast
2:53 PM 30.0 °F 19.5 °F 25.0 °F 82% 30.60 in 7.0 mi West 13.8 mph - N/A   Overcast
3:53 PM 30.0 °F 19.5 °F 25.0 °F 82% 30.61 in 7.0 mi WNW 13.8 mph - N/A   Overcast
4:53 PM 30.0 °F 20.0 °F 25.0 °F 82% 30.62 in 7.0 mi West 12.7 mph - N/A   Overcast
5:30 PM 30.2 °F 20.2 °F 24.8 °F 80% 30.63 in 6.0 mi WNW 12.7 mph - 0.00 in   Light Freezing Drizzle
5:53 PM 30.0 °F 20.5 °F 26.1 °F 85% 30.63 in 6.0 mi WNW 11.5 mph - 0.00 in   Light Freezing Drizzle
6:53 PM 30.0 °F 20.5 °F 24.1 °F 79% 30.65 in 8.0 mi WNW 11.5 mph - 0.00 in   Overcast
7:20 PM 30.2 °F 21.3 °F 24.8 °F 80% 30.66 in 7.0 mi WNW 10.4 mph - 0.00 in   Light Freezing Drizzle
7:27 PM 30.2 °F 23.4 °F 24.8 °F 80% 30.66 in 6.0 mi WNW 6.9 mph - 0.00 in   Light Freezing Drizzle
7:53 PM 30.0 °F 21.1 °F 25.0 °F 82% 30.67 in 7.0 mi WNW 10.4 mph - 0.00 in Snow Light Snow
8:53 PM 30.0 °F 20.5 °F 24.1 °F 79% 30.68 in 7.0 mi WNW 11.5 mph - 0.00 in   Overcast
9:53 PM 28.9 °F 20.4 °F 24.1 °F 82% 30.69 in 7.0 mi NW 9.2 mph - N/A   Overcast
10:53 PM 28.9 °F 21.9 °F 24.1 °F 82% 30.70 in 7.0 mi NW 6.9 mph - 0.00 in Snow Light Snow
11:53 PM 28.9 °F 19.8 °F 24.1 °F 82% 30.72 in 7.0 mi West 10.4 mph - N/A   Overcast